Voltar ao catálogo

FENGYUN 1C DEB

AtivoSSO
NORAD 35233·DEBRIS·🇨🇳 China

Lançado May 10, 1999 de Taiyuan Satellite Launch Center

Loading…

Próximas Passagens (próximas 24 horas)

TLE

AtualizadoSource: Space-Track

Época: Sep 14, 2026, 06:50 UTC

1 35233U 99025DQR 26257.28511834  .00004079  00000-0  11682-2 0  9995
2 35233  98.7763   9.7205 0041471 157.0662 231.6857 14.45065094951527

Acompanhe FENGYUN 1C DEB em tempo real com AllMySat

Download on the App Store